owner,sensor,date,latitude,longitude,vertical_datum,wind_speed,wind_to_direction,wind_speed_of_gust,qcFlag 
WAVCIS,ioos:station:WAVCIS:CSI06:1,2013-12-01T16:00:00Z,28.8667,-90.4833,10.0,4.6,40.0,6.2,'11111222,11111222,11111222' 
WAVCIS,ioos:station:WAVCIS:CSI06:1,2013-12-01T17:00:00Z,28.8667,-90.4833,10.0,4.1,50.0,5.1,'11111222,11111222,11111222' 
WAVCIS,ioos:station:WAVCIS:CSI06:1,2013-12-01T18:00:00Z,28.8667,-90.4833,10.0,4.1,60.0,5.1,'11111222,11111222,11111222' 
WAVCIS,ioos:station:WAVCIS:CSI06:1,2013-12-01T19:00:00Z,28.8667,-90.4833,10.0,4.1,60.0,4.6,'11111222,11111222,11111222' 
WAVCIS,ioos:station:WAVCIS:CSI06:1,2013-12-01T20:00:00Z,28.8667,-90.4833,10.0,2.6,40.0,4.1,'11111222,11111222,11111222' 
WAVCIS,ioos:station:WAVCIS:CSI06:1,2013-12-01T21:00:00Z,28.8667,-90.4833,10.0,2.1,90.0,3.1,'11111222,11111222,11111222' 
WAVCIS,ioos:station:WAVCIS:CSI06:1,2013-12-01T22:00:00Z,28.8667,-90.4833,10.0,1.0,80.0,1.5,'11111222,11111222,11111222' 
WAVCIS,ioos:station:WAVCIS:CSI06:1,2013-12-01T23:00:00Z,28.8667,-90.4833,10.0,1.0,80.0,2.1,'11111222,11111222,11111222' 
WAVCIS,ioos:station:WAVCIS:CSI06:1,2013-12-02T00:00:00Z,28.8667,-90.4833,10.0,1.0,210.0,1.5,'11111222,11111222,11111222' 
WAVCIS,ioos:station:WAVCIS:CSI06:1,2013-12-02T02:00:00Z,28.8667,-90.4833,10.0,2.6,220.0,3.6,'11111222,11111222,11111222' 
WAVCIS,ioos:station:WAVCIS:CSI06:1,2013-12-02T04:00:00Z,28.8667,-90.4833,10.0,3.1,240.0,4.1,'11111222,11111222,11111222' 
WAVCIS,ioos:station:WAVCIS:CSI06:1,2013-12-02T05:00:00Z,28.8667,-90.4833,10.0,4.1,210.0,4.6,'11111222,11111222,11111222' 
WAVCIS,ioos:station:WAVCIS:CSI06:1,2013-12-02T06:00:00Z,28.8667,-90.4833,10.0,3.1,250.0,3.6,'11111222,11111222,11111222' 
WAVCIS,ioos:station:WAVCIS:CSI06:1,2013-12-02T17:00:00Z,28.8667,-90.4833,10.0,4.1,170.0,4.6,'11111222,11111222,11111222' 
WAVCIS,ioos:station:WAVCIS:CSI06:1,2013-12-02T18:00:00Z,28.8667,-90.4833,10.0,4.6,190.0,5.7,'11111222,11111222,11111222' 
WAVCIS,ioos:station:WAVCIS:CSI06:1,2013-12-02T19:00:00Z,28.8667,-90.4833,10.0,5.1,220.0,5.7,'11111222,11111222,11111222' 
WAVCIS,ioos:station:WAVCIS:CSI06:1,2013-12-02T20:00:00Z,28.8667,-90.4833,10.0,4.6,200.0,5.7,'11111222,11111222,11111222' 
WAVCIS,ioos:station:WAVCIS:CSI06:1,2013-12-02T21:00:00Z,28.8667,-90.4833,10.0,4.6,220.0,5.7,'11111222,11111222,11111222' 
WAVCIS,ioos:station:WAVCIS:CSI06:1,2013-12-02T22:00:00Z,28.8667,-90.4833,10.0,5.1,210.0,5.7,'11111222,11111222,11111222' 
WAVCIS,ioos:station:WAVCIS:CSI06:1,2013-12-02T23:00:00Z,28.8667,-90.4833,10.0,5.1,200.0,6.2,'11111222,11111222,11111222' 
WAVCIS,ioos:station:WAVCIS:CSI06:1,2013-12-03T00:00:00Z,28.8667,-90.4833,10.0,6.2,210.0,6.7,'11111222,11111222,11111222' 
WAVCIS,ioos:station:WAVCIS:CSI06:1,2013-12-03T01:00:00Z,28.8667,-90.4833,10.0,6.2,200.0,7.2,'11111222,11111222,11111222' 
WAVCIS,ioos:station:WAVCIS:CSI06:1,2013-12-03T02:00:00Z,28.8667,-90.4833,10.0,6.2,200.0,6.7,'11111222,11111222,11111222' 
WAVCIS,ioos:station:WAVCIS:CSI06:1,2013-12-03T03:00:00Z,28.8667,-90.4833,10.0,7.7,210.0,8.2,'11111222,11111222,11111222' 
WAVCIS,ioos:station:WAVCIS:CSI06:1,2013-12-03T04:00:00Z,28.8667,-90.4833,10.0,7.2,210.0,7.7,'11111222,11111222,11111222' 
WAVCIS,ioos:station:WAVCIS:CSI06:1,2013-12-03T05:00:00Z,28.8667,-90.4833,10.0,7.7,220.0,8.2,'11111222,11111222,11111222' 
WAVCIS,ioos:station:WAVCIS:CSI06:1,2013-12-03T06:00:00Z,28.8667,-90.4833,10.0,6.7,210.0,7.2,'11111222,11111222,11111222' 
WAVCIS,ioos:station:WAVCIS:CSI06:1,2013-12-03T07:00:00Z,28.8667,-90.4833,10.0,8.2,200.0,8.8,'11111222,11111222,11111222' 
WAVCIS,ioos:station:WAVCIS:CSI06:1,2013-12-03T08:00:00Z,28.8667,-90.4833,10.0,8.2,200.0,8.8,'11111222,11111222,11111222' 
WAVCIS,ioos:station:WAVCIS:CSI06:1,2013-12-03T09:00:00Z,28.8667,-90.4833,10.0,7.7,200.0,8.2,'11111222,11111222,11111222' 
WAVCIS,ioos:station:WAVCIS:CSI06:1,2013-12-03T10:00:00Z,28.8667,-90.4833,10.0,8.2,200.0,9.3,'11111222,11111222,11111222' 
WAVCIS,ioos:station:WAVCIS:CSI06:1,2013-12-03T11:00:00Z,28.8667,-90.4833,10.0,8.2,200.0,8.8,'11111222,11111222,11111222' 
WAVCIS,ioos:station:WAVCIS:CSI06:1,2013-12-03T12:00:00Z,28.8667,-90.4833,10.0,7.7,190.0,8.2,'11111222,11111222,11111222' 
WAVCIS,ioos:station:WAVCIS:CSI06:1,2013-12-03T13:00:00Z,28.8667,-90.4833,10.0,7.7,180.0,8.2,'11111222,11111222,11111222' 
WAVCIS,ioos:station:WAVCIS:CSI06:1,2013-12-03T15:00:00Z,28.8667,-90.4833,10.0,6.7,180.0,7.2,'11111222,11111222,11111222' 
WAVCIS,ioos:station:WAVCIS:CSI06:1,2013-12-03T16:00:00Z,28.8667,-90.4833,10.0,7.2,180.0,7.7,'11111222,11111222,11111222' 
WAVCIS,ioos:station:WAVCIS:CSI06:1,2013-12-03T17:00:00Z,28.8667,-90.4833,10.0,7.7,190.0,8.2,'11111222,11111222,11111222' 
WAVCIS,ioos:station:WAVCIS:CSI06:1,2013-12-03T18:00:00Z,28.8667,-90.4833,10.0,8.2,190.0,9.3,'11111222,11111222,11111222' 
WAVCIS,ioos:station:WAVCIS:CSI06:1,2013-12-03T19:00:00Z,28.8667,-90.4833,10.0,8.8,200.0,9.3,'11111222,11111222,11111222' 
WAVCIS,ioos:station:WAVCIS:CSI06:1,2013-12-03T20:00:00Z,28.8667,-90.4833,10.0,7.7,190.0,8.2,'11111222,11111222,11111222' 
WAVCIS,ioos:station:WAVCIS:CSI06:1,2013-12-03T21:00:00Z,28.8667,-90.4833,10.0,7.2,190.0,7.7,'11111222,11111222,11111222' 
WAVCIS,ioos:station:WAVCIS:CSI06:1,2013-12-03T22:00:00Z,28.8667,-90.4833,10.0,6.7,190.0,7.2,'11111222,11111222,11111222' 
WAVCIS,ioos:station:WAVCIS:CSI06:1,2013-12-03T23:00:00Z,28.8667,-90.4833,10.0,7.7,180.0,8.2,'11111222,11111222,11111222' 
WAVCIS,ioos:station:WAVCIS:CSI06:1,2013-12-04T00:00:00Z,28.8667,-90.4833,10.0,8.2,170.0,8.8,'11111222,11111222,11111222' 
WAVCIS,ioos:station:WAVCIS:CSI06:1,2013-12-04T01:00:00Z,28.8667,-90.4833,10.0,8.2,170.0,8.8,'11111222,11111222,11111222' 
WAVCIS,ioos:station:WAVCIS:CSI06:1,2013-12-04T02:00:00Z,28.8667,-90.4833,10.0,7.2,170.0,8.2,'11111222,11111222,11111222' 
WAVCIS,ioos:station:WAVCIS:CSI06:1,2013-12-04T03:00:00Z,28.8667,-90.4833,10.0,7.7,180.0,8.2,'11111222,11111222,11111222' 
WAVCIS,ioos:station:WAVCIS:CSI06:1,2013-12-04T04:00:00Z,28.8667,-90.4833,10.0,8.2,170.0,9.3,'11111222,11111222,11111222' 
WAVCIS,ioos:station:WAVCIS:CSI06:1,2013-12-04T05:00:00Z,28.8667,-90.4833,10.0,8.2,170.0,9.3,'11111222,11111222,11111222' 
WAVCIS,ioos:station:WAVCIS:CSI06:1,2013-12-04T06:00:00Z,28.8667,-90.4833,10.0,8.2,170.0,9.3,'11111222,11111222,11111222' 
WAVCIS,ioos:station:WAVCIS:CSI06:1,2013-12-04T07:00:00Z,28.8667,-90.4833,10.0,7.2,170.0,7.7,'11111222,11111222,11111222' 
WAVCIS,ioos:station:WAVCIS:CSI06:1,2013-12-04T08:00:00Z,28.8667,-90.4833,10.0,7.2,180.0,7.7,'11111222,11111222,11111222' 
WAVCIS,ioos:station:WAVCIS:CSI06:1,2013-12-04T09:00:00Z,28.8667,-90.4833,10.0,6.7,180.0,7.2,'11111222,11111222,11111222' 
WAVCIS,ioos:station:WAVCIS:CSI06:1,2013-12-04T10:00:00Z,28.8667,-90.4833,10.0,7.2,170.0,7.2,'11111222,11111222,11111222' 
WAVCIS,ioos:station:WAVCIS:CSI06:1,2013-12-04T11:00:00Z,28.8667,-90.4833,10.0,7.7,170.0,8.2,'11111222,11111222,11111222' 
WAVCIS,ioos:station:WAVCIS:CSI06:1,2013-12-04T12:00:00Z,28.8667,-90.4833,10.0,7.7,160.0,8.2,'11111222,11111222,11111222' 
WAVCIS,ioos:station:WAVCIS:CSI06:1,2013-12-04T13:00:00Z,28.8667,-90.4833,10.0,7.7,160.0,8.2,'11111222,11111222,11111222' 
WAVCIS,ioos:station:WAVCIS:CSI06:1,2013-12-04T15:00:00Z,28.8667,-90.4833,10.0,6.2,170.0,6.7,'11111222,11111222,11111222' 
WAVCIS,ioos:station:WAVCIS:CSI06:1,2013-12-04T17:00:00Z,28.8667,-90.4833,10.0,6.2,160.0,6.7,'11111222,11111222,11111222' 
WAVCIS,ioos:station:WAVCIS:CSI06:1,2013-12-04T18:00:00Z,28.8667,-90.4833,10.0,7.2,160.0,7.2,'11111222,11111222,11111222' 
WAVCIS,ioos:station:WAVCIS:CSI06:1,2013-12-05T19:00:00Z,28.8667,-90.4833,10.0,7.2,160.0,7.7,'11111222,11111222,11111222' 
WAVCIS,ioos:station:WAVCIS:CSI06:1,2013-12-05T20:00:00Z,28.8667,-90.4833,10.0,7.2,160.0,7.2,'11111222,11111222,11111222' 
WAVCIS,ioos:station:WAVCIS:CSI06:1,2013-12-05T21:00:00Z,28.8667,-90.4833,10.0,7.7,160.0,8.2,'11111222,11111222,11111222' 
WAVCIS,ioos:station:WAVCIS:CSI06:1,2013-12-05T22:00:00Z,28.8667,-90.4833,10.0,7.2,160.0,7.7,'11111222,11111222,11111222' 
WAVCIS,ioos:station:WAVCIS:CSI06:1,2013-12-05T23:00:00Z,28.8667,-90.4833,10.0,5.7,150.0,6.2,'11111222,11111222,11111222' 
WAVCIS,ioos:station:WAVCIS:CSI06:1,2013-12-06T00:00:00Z,28.8667,-90.4833,10.0,6.2,150.0,6.7,'11111222,11111222,11111222' 
WAVCIS,ioos:station:WAVCIS:CSI06:1,2013-12-06T01:00:00Z,28.8667,-90.4833,10.0,8.8,150.0,9.3,'11111222,11111222,11111222' 
WAVCIS,ioos:station:WAVCIS:CSI06:1,2013-12-06T02:00:00Z,28.8667,-90.4833,10.0,8.2,150.0,8.8,'11111222,11111222,11111222' 
WAVCIS,ioos:station:WAVCIS:CSI06:1,2013-12-06T03:00:00Z,28.8667,-90.4833,10.0,7.7,150.0,8.2,'11111222,11111222,11111222' 
WAVCIS,ioos:station:WAVCIS:CSI06:1,2013-12-06T04:00:00Z,28.8667,-90.4833,10.0,4.6,160.0,5.7,'11111222,11111222,11111222' 
WAVCIS,ioos:station:WAVCIS:CSI06:1,2013-12-06T05:00:00Z,28.8667,-90.4833,10.0,7.2,160.0,7.7,'11111222,11111222,11111222' 
WAVCIS,ioos:station:WAVCIS:CSI06:1,2013-12-06T06:00:00Z,28.8667,-90.4833,10.0,8.8,150.0,9.3,'11111222,11111222,11111222' 
WAVCIS,ioos:station:WAVCIS:CSI06:1,2013-12-06T07:00:00Z,28.8667,-90.4833,10.0,10.3,150.0,11.3,'11111222,11111222,11111222' 
WAVCIS,ioos:station:WAVCIS:CSI06:1,2013-12-06T08:00:00Z,28.8667,-90.4833,10.0,9.3,150.0,10.3,'11111222,11111222,11111222' 
WAVCIS,ioos:station:WAVCIS:CSI06:1,2013-12-06T09:00:00Z,28.8667,-90.4833,10.0,7.2,160.0,8.2,'11111222,11111222,11111222' 
WAVCIS,ioos:station:WAVCIS:CSI06:1,2013-12-06T10:00:00Z,28.8667,-90.4833,10.0,9.3,160.0,11.3,'11111222,11111222,11111222' 
WAVCIS,ioos:station:WAVCIS:CSI06:1,2013-12-06T11:00:00Z,28.8667,-90.4833,10.0,9.8,150.0,10.8,'11111222,11111222,11111222' 
WAVCIS,ioos:station:WAVCIS:CSI06:1,2013-12-06T12:00:00Z,28.8667,-90.4833,10.0,8.2,150.0,8.8,'11111222,11111222,11111222' 
WAVCIS,ioos:station:WAVCIS:CSI06:1,2013-12-06T13:00:00Z,28.8667,-90.4833,10.0,6.7,160.0,7.7,'11111222,11111222,11111222' 
WAVCIS,ioos:station:WAVCIS:CSI06:1,2013-12-06T14:00:00Z,28.8667,-90.4833,10.0,5.1,170.0,5.7,'11111222,11111222,11111222' 
WAVCIS,ioos:station:WAVCIS:CSI06:1,2013-12-06T15:00:00Z,28.8667,-90.4833,10.0,6.7,160.0,6.7,'11111222,11111222,11111222' 
WAVCIS,ioos:station:WAVCIS:CSI06:1,2013-12-06T16:00:00Z,28.8667,-90.4833,10.0,8.2,160.0,8.2,'11111222,11111222,11111222' 
WAVCIS,ioos:station:WAVCIS:CSI06:1,2013-12-06T17:00:00Z,28.8667,-90.4833,10.0,7.2,170.0,8.2,'11111222,11111222,11111222' 
WAVCIS,ioos:station:WAVCIS:CSI06:1,2013-12-06T18:00:00Z,28.8667,-90.4833,10.0,8.2,170.0,8.8,'11111222,11111222,11111222' 
WAVCIS,ioos:station:WAVCIS:CSI06:1,2013-12-06T19:00:00Z,28.8667,-90.4833,10.0,8.2,170.0,8.8,'11111222,11111222,11111222' 
WAVCIS,ioos:station:WAVCIS:CSI06:1,2013-12-06T20:00:00Z,28.8667,-90.4833,10.0,7.2,180.0,7.7,'11111222,11111222,11111222' 
WAVCIS,ioos:station:WAVCIS:CSI06:1,2013-12-06T21:00:00Z,28.8667,-90.4833,10.0,7.2,180.0,8.2,'11111222,11111222,11111222' 
WAVCIS,ioos:station:WAVCIS:CSI06:1,2013-12-06T22:00:00Z,28.8667,-90.4833,10.0,7.7,180.0,8.2,'11111222,11111222,11111222' 
WAVCIS,ioos:station:WAVCIS:CSI06:1,2013-12-06T23:00:00Z,28.8667,-90.4833,10.0,7.7,170.0,8.2,'11111222,11111222,11111222' 
WAVCIS,ioos:station:WAVCIS:CSI06:1,2013-12-07T00:00:00Z,28.8667,-90.4833,10.0,7.2,170.0,8.2,'11111222,11111222,11111222' 
WAVCIS,ioos:station:WAVCIS:CSI06:1,2013-12-07T01:00:00Z,28.8667,-90.4833,10.0,6.7,300.0,7.2,'11111222,11111222,11111222' 
WAVCIS,ioos:station:WAVCIS:CSI06:1,2013-12-07T02:00:00Z,28.8667,-90.4833,10.0,6.2,360.0,8.8,'11111222,11144222,11111222' 
WAVCIS,ioos:station:WAVCIS:CSI06:1,2013-12-07T03:00:00Z,28.8667,-90.4833,10.0,8.8,10.0,11.8,'11111222,11111222,11111222' 
WAVCIS,ioos:station:WAVCIS:CSI06:1,2013-12-07T04:00:00Z,28.8667,-90.4833,10.0,9.3,10.0,11.8,'11111222,11111222,11111222' 
WAVCIS,ioos:station:WAVCIS:CSI06:1,2013-12-07T05:00:00Z,28.8667,-90.4833,10.0,8.2,10.0,11.3,'11111222,11111222,11111222' 
WAVCIS,ioos:station:WAVCIS:CSI06:1,2013-12-07T06:00:00Z,28.8667,-90.4833,10.0,10.3,10.0,12.9,'11111222,11111222,11111222' 
WAVCIS,ioos:station:WAVCIS:CSI06:1,2013-12-07T07:00:00Z,28.8667,-90.4833,10.0,9.8,10.0,12.9,'11111222,11111222,11111222' 
WAVCIS,ioos:station:WAVCIS:CSI06:1,2013-12-07T08:00:00Z,28.8667,-90.4833,10.0,10.8,10.0,13.4,'11111222,11111222,11111222' 
WAVCIS,ioos:station:WAVCIS:CSI06:1,2013-12-07T09:00:00Z,28.8667,-90.4833,10.0,10.3,10.0,13.9,'11111222,11111222,11111222' 
WAVCIS,ioos:station:WAVCIS:CSI06:1,2013-12-07T10:00:00Z,28.8667,-90.4833,10.0,10.8,10.0,13.9,'11111222,11111222,11111222' 
WAVCIS,ioos:station:WAVCIS:CSI06:1,2013-12-07T11:00:00Z,28.8667,-90.4833,10.0,11.3,10.0,15.4,'11111222,11111222,11111222' 
WAVCIS,ioos:station:WAVCIS:CSI06:1,2013-12-07T12:00:00Z,28.8667,-90.4833,10.0,11.3,20.0,13.4,'11111222,11111222,11111222' 
WAVCIS,ioos:station:WAVCIS:CSI06:1,2013-12-07T13:00:00Z,28.8667,-90.4833,10.0,10.8,30.0,12.9,'11111222,11111222,11111222' 
WAVCIS,ioos:station:WAVCIS:CSI06:1,2013-12-07T14:00:00Z,28.8667,-90.4833,10.0,9.8,30.0,11.8,'11111222,11111222,11111222' 
WAVCIS,ioos:station:WAVCIS:CSI06:1,2013-12-07T15:00:00Z,28.8667,-90.4833,10.0,10.3,20.0,12.9,'11111222,11111222,11111222' 
WAVCIS,ioos:station:WAVCIS:CSI06:1,2013-12-07T16:00:00Z,28.8667,-90.4833,10.0,10.3,30.0,12.4,'11111222,11111222,11111222' 
WAVCIS,ioos:station:WAVCIS:CSI06:1,2013-12-07T17:00:00Z,28.8667,-90.4833,10.0,8.2,40.0,10.8,'11111222,11111222,11111222' 
WAVCIS,ioos:station:WAVCIS:CSI06:1,2013-12-07T18:00:00Z,28.8667,-90.4833,10.0,9.3,30.0,11.8,'11111222,11111222,11111222' 
WAVCIS,ioos:station:WAVCIS:CSI06:1,2013-12-07T19:00:00Z,28.8667,-90.4833,10.0,9.8,30.0,11.3,'11111222,11111222,11111222' 
WAVCIS,ioos:station:WAVCIS:CSI06:1,2013-12-07T20:00:00Z,28.8667,-90.4833,10.0,8.8,30.0,10.8,'11111222,11111222,11111222' 
WAVCIS,ioos:station:WAVCIS:CSI06:1,2013-12-07T21:00:00Z,28.8667,-90.4833,10.0,8.8,30.0,11.3,'11111222,11111222,11111222' 
WAVCIS,ioos:station:WAVCIS:CSI06:1,2013-12-07T22:00:00Z,28.8667,-90.4833,10.0,8.8,30.0,11.3,'11111222,11111222,11111222' 
WAVCIS,ioos:station:WAVCIS:CSI06:1,2013-12-07T23:00:00Z,28.8667,-90.4833,10.0,8.8,40.0,10.8,'11111222,11111222,11111222' 
WAVCIS,ioos:station:WAVCIS:CSI06:1,2013-12-08T00:00:00Z,28.8667,-90.4833,10.0,8.8,30.0,11.3,'11111222,11111222,11111222' 
WAVCIS,ioos:station:WAVCIS:CSI06:1,2013-12-08T01:00:00Z,28.8667,-90.4833,10.0,8.2,40.0,10.8,'11111222,11111222,11111222' 
WAVCIS,ioos:station:WAVCIS:CSI06:1,2013-12-08T02:00:00Z,28.8667,-90.4833,10.0,9.3,40.0,11.3,'11111222,11111222,11111222' 
WAVCIS,ioos:station:WAVCIS:CSI06:1,2013-12-08T03:00:00Z,28.8667,-90.4833,10.0,7.7,30.0,9.8,'11111222,11111222,11111222' 
WAVCIS,ioos:station:WAVCIS:CSI06:1,2013-12-08T04:00:00Z,28.8667,-90.4833,10.0,7.7,40.0,9.3,'11111222,11111222,11111222' 
WAVCIS,ioos:station:WAVCIS:CSI06:1,2013-12-08T05:00:00Z,28.8667,-90.4833,10.0,7.2,40.0,9.8,'11111222,11111222,11111222' 
WAVCIS,ioos:station:WAVCIS:CSI06:1,2013-12-08T06:00:00Z,28.8667,-90.4833,10.0,8.2,30.0,10.8,'11111222,11111222,11111222' 
WAVCIS,ioos:station:WAVCIS:CSI06:1,2013-12-08T07:00:00Z,28.8667,-90.4833,10.0,7.7,40.0,10.3,'11111222,11111222,11111222' 
WAVCIS,ioos:station:WAVCIS:CSI06:1,2013-12-08T08:00:00Z,28.8667,-90.4833,10.0,8.8,50.0,10.8,'11111222,11111222,11111222' 
WAVCIS,ioos:station:WAVCIS:CSI06:1,2013-12-08T09:00:00Z,28.8667,-90.4833,10.0,9.3,40.0,10.8,'11111222,11111222,11111222' 
WAVCIS,ioos:station:WAVCIS:CSI06:1,2013-12-08T10:00:00Z,28.8667,-90.4833,10.0,7.7,40.0,10.3,'11111222,11111222,11111222' 
WAVCIS,ioos:station:WAVCIS:CSI06:1,2013-12-08T11:00:00Z,28.8667,-90.4833,10.0,8.2,50.0,10.3,'11111222,11111222,11111222' 
WAVCIS,ioos:station:WAVCIS:CSI06:1,2013-12-08T12:00:00Z,28.8667,-90.4833,10.0,10.3,60.0,11.3,'11111222,11111222,11111222' 
WAVCIS,ioos:station:WAVCIS:CSI06:1,2013-12-08T13:00:00Z,28.8667,-90.4833,10.0,8.8,50.0,10.8,'11111222,11111222,11111222' 
WAVCIS,ioos:station:WAVCIS:CSI06:1,2013-12-08T14:00:00Z,28.8667,-90.4833,10.0,9.3,50.0,10.8,'11111222,11111222,11111222' 
WAVCIS,ioos:station:WAVCIS:CSI06:1,2013-12-08T15:00:00Z,28.8667,-90.4833,10.0,7.2,40.0,8.8,'11111222,11111222,11111222' 
WAVCIS,ioos:station:WAVCIS:CSI06:1,2013-12-08T16:00:00Z,28.8667,-90.4833,10.0,7.2,40.0,8.8,'11111222,11111222,11111222' 
WAVCIS,ioos:station:WAVCIS:CSI06:1,2013-12-08T17:00:00Z,28.8667,-90.4833,10.0,6.7,50.0,7.7,'11111222,11111222,11111222' 
WAVCIS,ioos:station:WAVCIS:CSI06:1,2013-12-08T18:00:00Z,28.8667,-90.4833,10.0,5.1,50.0,6.2,'11111222,11111222,11111222' 
WAVCIS,ioos:station:WAVCIS:CSI06:1,2013-12-08T19:00:00Z,28.8667,-90.4833,10.0,4.6,80.0,5.7,'11111222,11111222,11111222' 
WAVCIS,ioos:station:WAVCIS:CSI06:1,2013-12-08T20:00:00Z,28.8667,-90.4833,10.0,4.1,130.0,4.6,'11111222,11111222,11111222' 
WAVCIS,ioos:station:WAVCIS:CSI06:1,2013-12-08T21:00:00Z,28.8667,-90.4833,10.0,6.2,170.0,6.7,'11111222,11111222,11111222' 
WAVCIS,ioos:station:WAVCIS:CSI06:1,2013-12-08T22:00:00Z,28.8667,-90.4833,10.0,4.6,170.0,5.1,'11111222,11111222,11111222' 
WAVCIS,ioos:station:WAVCIS:CSI06:1,2013-12-08T23:00:00Z,28.8667,-90.4833,10.0,2.6,170.0,4.1,'11111222,11111222,11111222' 
WAVCIS,ioos:station:WAVCIS:CSI06:1,2013-12-09T00:00:00Z,28.8667,-90.4833,10.0,1.5,160.0,2.6,'11111222,11111222,11111222' 
WAVCIS,ioos:station:WAVCIS:CSI06:1,2013-12-09T01:00:00Z,28.8667,-90.4833,10.0,7.2,170.0,7.7,'11111222,11111222,11111222' 
WAVCIS,ioos:station:WAVCIS:CSI06:1,2013-12-09T02:00:00Z,28.8667,-90.4833,10.0,10.3,160.0,10.8,'11111222,11111222,11111222' 
WAVCIS,ioos:station:WAVCIS:CSI06:1,2013-12-09T03:00:00Z,28.8667,-90.4833,10.0,9.3,170.0,9.8,'11111222,11111222,11111222' 
WAVCIS,ioos:station:WAVCIS:CSI06:1,2013-12-09T04:00:00Z,28.8667,-90.4833,10.0,7.7,170.0,7.7,'11111222,11111222,11111222' 
WAVCIS,ioos:station:WAVCIS:CSI06:1,2013-12-09T05:00:00Z,28.8667,-90.4833,10.0,6.7,170.0,7.2,'11111222,11111222,11111222' 
WAVCIS,ioos:station:WAVCIS:CSI06:1,2013-12-09T06:00:00Z,28.8667,-90.4833,10.0,7.2,170.0,7.7,'11111222,11111222,11111222' 
WAVCIS,ioos:station:WAVCIS:CSI06:1,2013-12-09T07:00:00Z,28.8667,-90.4833,10.0,5.7,260.0,8.8,'11111222,11111222,11111222' 
WAVCIS,ioos:station:WAVCIS:CSI06:1,2013-12-09T08:00:00Z,28.8667,-90.4833,10.0,3.1,350.0,4.1,'11111222,11111222,11111222' 
WAVCIS,ioos:station:WAVCIS:CSI06:1,2013-12-09T09:00:00Z,28.8667,-90.4833,10.0,3.1,360.0,5.7,'11111222,11144222,11111222' 
WAVCIS,ioos:station:WAVCIS:CSI06:1,2013-12-09T10:00:00Z,28.8667,-90.4833,10.0,6.2,10.0,7.2,'11111222,11111222,11111222' 
WAVCIS,ioos:station:WAVCIS:CSI06:1,2013-12-09T11:00:00Z,28.8667,-90.4833,10.0,4.1,20.0,5.7,'11111222,11111222,11111222' 
WAVCIS,ioos:station:WAVCIS:CSI06:1,2013-12-09T12:00:00Z,28.8667,-90.4833,10.0,5.1,20.0,5.7,'11111222,11111222,11111222' 
WAVCIS,ioos:station:WAVCIS:CSI06:1,2013-12-09T13:00:00Z,28.8667,-90.4833,10.0,5.7,20.0,7.2,'11111222,11111222,11111222' 
WAVCIS,ioos:station:WAVCIS:CSI06:1,2013-12-09T14:00:00Z,28.8667,-90.4833,10.0,5.1,40.0,6.2,'11111222,11111222,11111222' 
WAVCIS,ioos:station:WAVCIS:CSI06:1,2013-12-09T15:00:00Z,28.8667,-90.4833,10.0,6.7,60.0,7.2,'11111222,11111222,11111222' 
WAVCIS,ioos:station:WAVCIS:CSI06:1,2013-12-09T16:00:00Z,28.8667,-90.4833,10.0,5.7,50.0,7.2,'11111222,11111222,11111222' 
WAVCIS,ioos:station:WAVCIS:CSI06:1,2013-12-09T17:00:00Z,28.8667,-90.4833,10.0,5.1,40.0,6.7,'11111222,11111222,11111222' 
WAVCIS,ioos:station:WAVCIS:CSI06:1,2013-12-09T18:00:00Z,28.8667,-90.4833,10.0,6.2,40.0,8.2,'11111222,11111222,11111222' 
WAVCIS,ioos:station:WAVCIS:CSI06:1,2013-12-09T19:00:00Z,28.8667,-90.4833,10.0,6.2,40.0,7.7,'11111222,11111222,11111222' 
WAVCIS,ioos:station:WAVCIS:CSI06:1,2013-12-09T20:00:00Z,28.8667,-90.4833,10.0,7.2,60.0,7.7,'11111222,11111222,11111222' 
WAVCIS,ioos:station:WAVCIS:CSI06:1,2013-12-09T21:00:00Z,28.8667,-90.4833,10.0,6.7,60.0,8.2,'11111222,11111222,11111222' 
WAVCIS,ioos:station:WAVCIS:CSI06:1,2013-12-09T22:00:00Z,28.8667,-90.4833,10.0,7.2,70.0,7.7,'11111222,11111222,11111222' 
WAVCIS,ioos:station:WAVCIS:CSI06:1,2013-12-09T23:00:00Z,28.8667,-90.4833,10.0,7.2,80.0,7.7,'11111222,11111222,11111222' 
WAVCIS,ioos:station:WAVCIS:CSI06:1,2013-12-10T00:00:00Z,28.8667,-90.4833,10.0,7.7,90.0,8.2,'11111222,11111222,11111222' 
WAVCIS,ioos:station:WAVCIS:CSI06:1,2013-12-10T01:00:00Z,28.8667,-90.4833,10.0,6.7,90.0,7.2,'11111222,11111222,11111222' 
WAVCIS,ioos:station:WAVCIS:CSI06:1,2013-12-10T02:00:00Z,28.8667,-90.4833,10.0,5.7,110.0,6.2,'11111222,11111222,11111222' 
WAVCIS,ioos:station:WAVCIS:CSI06:1,2013-12-10T03:00:00Z,28.8667,-90.4833,10.0,3.1,120.0,4.1,'11111222,11111222,11111222' 
WAVCIS,ioos:station:WAVCIS:CSI06:1,2013-12-10T04:00:00Z,28.8667,-90.4833,10.0,3.1,100.0,3.6,'11111222,11111222,11111222' 
WAVCIS,ioos:station:WAVCIS:CSI06:1,2013-12-10T05:00:00Z,28.8667,-90.4833,10.0,1.0,50.0,3.1,'11111222,11111222,11111222' 
WAVCIS,ioos:station:WAVCIS:CSI06:1,2013-12-10T06:00:00Z,28.8667,-90.4833,10.0,3.1,170.0,4.1,'11111222,11111222,11111222' 
WAVCIS,ioos:station:WAVCIS:CSI06:1,2013-12-10T07:00:00Z,28.8667,-90.4833,10.0,5.1,190.0,5.7,'11111222,11111222,11111222' 
WAVCIS,ioos:station:WAVCIS:CSI06:1,2013-12-10T08:00:00Z,28.8667,-90.4833,10.0,8.8,330.0,9.8,'11111222,11111222,11111222' 
WAVCIS,ioos:station:WAVCIS:CSI06:1,2013-12-10T09:00:00Z,28.8667,-90.4833,10.0,9.3,340.0,12.9,'11111222,11111222,11111222' 
WAVCIS,ioos:station:WAVCIS:CSI06:1,2013-12-10T10:00:00Z,28.8667,-90.4833,10.0,14.4,340.0,18.5,'11111222,11111222,11111222' 
WAVCIS,ioos:station:WAVCIS:CSI06:1,2013-12-10T11:00:00Z,28.8667,-90.4833,10.0,9.8,360.0,13.9,'11111222,11144222,11111222' 
WAVCIS,ioos:station:WAVCIS:CSI06:1,2013-12-10T12:00:00Z,28.8667,-90.4833,10.0,9.3,350.0,12.4,'11111222,11111222,11111222' 
WAVCIS,ioos:station:WAVCIS:CSI06:1,2013-12-10T13:00:00Z,28.8667,-90.4833,10.0,11.3,10.0,15.4,'11111222,11111222,11111222' 
WAVCIS,ioos:station:WAVCIS:CSI06:1,2013-12-10T14:00:00Z,28.8667,-90.4833,10.0,9.8,360.0,14.9,'11111222,11144222,11111222' 
WAVCIS,ioos:station:WAVCIS:CSI06:1,2013-12-10T15:00:00Z,28.8667,-90.4833,10.0,9.8,360.0,16.5,'11111222,11144222,11111222' 
WAVCIS,ioos:station:WAVCIS:CSI06:1,2013-12-10T16:00:00Z,28.8667,-90.4833,10.0,10.8,10.0,16.5,'11111222,11111222,11111222' 
WAVCIS,ioos:station:WAVCIS:CSI06:1,2013-12-10T17:00:00Z,28.8667,-90.4833,10.0,11.3,10.0,15.4,'11111222,11111222,11111222' 
WAVCIS,ioos:station:WAVCIS:CSI06:1,2013-12-10T18:00:00Z,28.8667,-90.4833,10.0,12.9,10.0,16.0,'11111222,11111222,11111222' 
WAVCIS,ioos:station:WAVCIS:CSI06:1,2013-12-10T19:00:00Z,28.8667,-90.4833,10.0,11.8,20.0,15.4,'11111222,11111222,11111222' 
WAVCIS,ioos:station:WAVCIS:CSI06:1,2013-12-10T20:00:00Z,28.8667,-90.4833,10.0,9.8,20.0,11.3,'11111222,11111222,11111222' 
WAVCIS,ioos:station:WAVCIS:CSI06:1,2013-12-10T21:00:00Z,28.8667,-90.4833,10.0,11.3,30.0,13.4,'11111222,11111222,11111222' 
WAVCIS,ioos:station:WAVCIS:CSI06:1,2013-12-11T16:00:00Z,28.8667,-90.4833,10.0,9.3,30.0,10.8,'11111222,11111222,11111222' 
WAVCIS,ioos:station:WAVCIS:CSI06:1,2013-12-11T17:00:00Z,28.8667,-90.4833,10.0,7.7,40.0,9.8,'11111222,11111222,11111222' 
WAVCIS,ioos:station:WAVCIS:CSI06:1,2013-12-11T18:00:00Z,28.8667,-90.4833,10.0,7.2,40.0,9.8,'11111222,11111222,11111222' 
WAVCIS,ioos:station:WAVCIS:CSI06:1,2013-12-11T19:00:00Z,28.8667,-90.4833,10.0,6.7,40.0,8.2,'11111222,11111222,11111222' 
WAVCIS,ioos:station:WAVCIS:CSI06:1,2013-12-11T20:00:00Z,28.8667,-90.4833,10.0,5.1,40.0,7.2,'11111222,11111222,11111222' 
WAVCIS,ioos:station:WAVCIS:CSI06:1,2013-12-11T21:00:00Z,28.8667,-90.4833,10.0,6.2,20.0,7.7,'11111222,11111222,11111222' 
WAVCIS,ioos:station:WAVCIS:CSI06:1,2013-12-11T22:00:00Z,28.8667,-90.4833,10.0,5.7,30.0,6.7,'11111222,11111222,11111222' 
WAVCIS,ioos:station:WAVCIS:CSI06:1,2013-12-11T23:00:00Z,28.8667,-90.4833,10.0,5.7,10.0,7.2,'11111222,11111222,11111222' 
WAVCIS,ioos:station:WAVCIS:CSI06:1,2013-12-12T00:00:00Z,28.8667,-90.4833,10.0,6.2,10.0,8.8,'11111222,11111222,11111222' 
WAVCIS,ioos:station:WAVCIS:CSI06:1,2013-12-12T01:00:00Z,28.8667,-90.4833,10.0,7.2,20.0,8.8,'11111222,11111222,11111222' 
WAVCIS,ioos:station:WAVCIS:CSI06:1,2013-12-12T02:00:00Z,28.8667,-90.4833,10.0,7.2,30.0,8.2,'11111222,11111222,11111222' 
WAVCIS,ioos:station:WAVCIS:CSI06:1,2013-12-12T04:00:00Z,28.8667,-90.4833,10.0,6.7,30.0,8.2,'11111222,11111222,11111222' 